N9BSW Weather Reports


time (UTC)temp
C
wind
direction
speed
KPH
gust
KPH
rain 1hr
cm
rain 24hr
cm
rain mn
cm
humidity
%
barometer
mb
20260906073334 23 145 3.2 4.8 0.00 0.00 0.00 86 1014.7
20260906072830 23 142 1.6 1.6 0.00 0.00 0.00 86 1014.7
20260906072326 23 144 1.6 3.2 0.00 0.00 0.00 88 1014.6
20260906071822 23 164 0.0 0.0 0.00 0.00 0.00 88 1014.7
20260906071321 23 96 1.6 1.6 0.00 0.00 0.00 88 1014.8
20260906070818 23 51 4.8 4.8 0.00 0.00 0.00 88 1015.0
20260906070314 23 142 1.6 4.8 0.00 0.00 0.00 88 1014.6
20260906065814 23 145 3.2 3.2 0.00 0.00 0.00 89 1014.5
20260906065309 23 142 3.2 3.2 0.00 0.00 0.00 89 1014.7
20260906064805 23 136 0.0 0.0 0.00 0.00 0.00 89 1014.5
20260906064301 23 153 3.2 6.4 0.00 0.00 0.00 89 1014.7
20260906063755 23 111 0.0 1.6 0.00 0.00 0.00 89 1014.7
20260906063251 23 140 1.6 1.6 0.00 0.00 0.00 89 1014.8
20260906062745 23 105 1.6 3.2 0.00 0.00 0.00 89 1014.7
20260906062245 23 93 1.6 1.6 0.00 0.00 0.00 89 1014.7
20260906061740 23 111 4.8 6.4 0.00 0.00 0.00 89 1014.9
20260906061237 23 165 1.6 1.6 0.00 0.00 0.00 89 1014.7
20260906060732 23 143 1.6 1.6 0.00 0.00 0.00 89 1014.7
20260906060230 23 126 0.0 0.0 0.00 0.00 0.00 89 1014.7
20260906055725 23 134 0.0 1.6 0.00 0.00 0.00 89 1014.7
20260906055220 23 153 0.0 0.0 0.00 0.00 0.00 89 1014.7
20260906054716 23 137 1.6 3.2 0.00 0.00 0.00 89 1014.4
20260906054216 23 156 1.6 3.2 0.00 0.00 0.00 89 1014.5
20260906053712 23 154 0.0 0.0 0.00 0.00 0.00 88 1014.6
20260906053207 23 141 0.0 1.6 0.00 0.00 0.00 88 1014.8
20260906052702 23 91 1.6 3.2 0.00 0.00 0.00 88 1014.7
20260906052159 23 65 3.2 3.2 0.00 0.00 0.00 88 1014.6
20260906051655 23 36 3.2 6.4 0.00 0.00 0.00 88 1014.5
20260906051154 23 136 1.6 4.8 0.00 0.00 0.00 88 1014.5
20260906050651 23 22 4.8 11.3 0.00 0.00 0.00 88 1014.3
20260906050145 23 94 3.2 3.2 0.00 0.00 0.00 88 1014.4
20260906045644 24 140 0.0 0.0 0.00 0.00 0.00 87 1014.3
20260906045139 24 162 3.2 4.8 0.00 0.00 0.00 87 1014.4
20260906044635 24 134 0.0 0.0 0.00 0.00 0.00 87 1014.3
20260906044130 24 201 3.2 3.2 0.00 0.00 0.00 87 1014.4
20260906043627 24 143 0.0 1.6 0.00 0.00 0.00 87 1014.2
20260906043121 24 164 1.6 3.2 0.00 0.00 0.00 87 1014.2
20260906042621 24 128 0.0 1.6 0.00 0.00 0.00 87 1014.2
20260906042116 25 48 1.6 3.2 0.00 0.00 0.00 86 1014.0
20260906041612 25 133 0.0 0.0 0.00 0.00 0.00 86 1014.3
20260906041111 25 348 4.8 4.8 0.00 0.00 0.00 86 1014.3
20260906040607 25 117 4.8 6.4 0.00 0.00 0.00 86 1014.2
20260906035557 25 158 0.0 0.0 0.00 0.00 0.00 86 1014.1
20260906035054 25 160 1.6 1.6 0.00 0.00 0.00 85 1014.0
20260906034553 25 147 1.6 1.6 0.00 0.00 0.00 85 1013.9
20260906034048 25 150 0.0 0.0 0.00 0.00 0.00 84 1013.8
20260906033544 25 128 0.0 1.6 0.00 0.00 0.00 84 1013.9
20260906033039 25 143 0.0 0.0 0.00 0.00 0.00 84 1013.9
20260906032536 25 148 0.0 1.6 0.00 0.00 0.00 84 1013.9
20260906032030 25 139 1.6 3.2 0.00 0.00 0.00 83 1014.1
20260906031526 25 140 1.6 1.6 0.00 0.00 0.00 83 1013.8
20260906031021 25 148 1.6 1.6 0.00 0.00 0.00 82 1014.0
20260906030520 25 148 1.6 1.6 0.00 0.00 0.00 81 1014.0
20260906030020 25 128 1.6 1.6 0.00 0.00 0.00 81 1013.8
20260906025520 26 130 1.6 1.6 0.00 0.00 0.00 80 1013.9
20260906025018 26 114 3.2 3.2 0.00 0.00 0.00 80 1013.9
20260906024514 26 135 1.6 1.6 0.00 0.00 0.00 79 1013.8
20260906024014 26 111 3.2 4.8 0.00 0.00 0.00 78 1013.8
20260906023510 26 158 1.6 1.6 0.00 0.00 0.00 78 1013.9
20260906023004 26 166 1.6 1.6 0.00 0.00 0.00 76 1013.8
20260906022500 26 158 0.0 0.0 0.00 0.00 0.00 75 1013.5
20260906021955 27 114 3.2 3.2 0.00 0.00 0.00 74 1013.5
20260906021450 27 169 1.6 1.6 0.00 0.00 0.00 74 1013.4
20260906020944 27 162 0.0 1.6 0.00 0.00 0.00 73 1013.2
20260906020439 27 161 0.0 1.6 0.00 0.00 0.00 74 1013.1
20260906015939 27 144 0.0 0.0 0.00 0.00 0.00 74 1013.1
20260906015438 27 163 3.2 4.8 0.00 0.00 0.00 74 1013.0
20260906014938 27 142 0.0 1.6 0.00 0.00 0.00 74 1013.1
20260906014438 27 142 0.0 0.0 0.00 0.00 0.00 73 1013.0
20260906013934 27 142 0.0 0.0 0.00 0.00 0.00 73 1012.8
20260906013429 27 139 1.6 1.6 0.00 0.00 0.00 73 1012.8
20260906012925 27 136 3.2 3.2 0.00 0.00 0.00 73 1012.6
20260906012425 27 142 0.0 0.0 0.00 0.00 0.00 72 1012.6
20260906011924 27 141 3.2 3.2 0.00 0.00 0.00 72 1012.6
20260906011419 27 143 1.6 1.6 0.00 0.00 0.00 72 1012.6
20260906010915 28 93 0.0 1.6 0.00 0.00 0.00 72 1012.3
20260906010410 28 163 0.0 0.0 0.00 0.00 0.00 71 1012.3
20260906005906 28 100 1.6 3.2 0.00 0.00 0.00 71 1012.3
20260906005406 28 148 0.0 1.6 0.00 0.00 0.00 70 1012.3
20260906004904 28 139 1.6 1.6 0.00 0.00 0.00 69 1012.2
20260906004359 28 102 1.6 3.2 0.00 0.00 0.00 69 1012.1
20260906003854 28 148 0.0 0.0 0.00 0.00 0.00 69 1012.0
20260906003350 28 148 0.0 0.0 0.00 0.00 0.00 69 1012.0
20260906002845 28 157 0.0 1.6 0.00 0.00 0.00 70 1011.9
20260906002344 28 156 1.6 3.2 0.00 0.00 0.00 71 1011.9
20260906001840 29 145 0.0 0.0 0.00 0.00 0.00 71 1011.8
20260906001335 29 152 0.0 0.0 0.00 0.00 0.00 71 1011.6
20260906000830 29 165 0.0 0.0 0.00 0.00 0.00 70 1012.0
20260906000326 30 159 0.0 0.0 0.00 0.00 0.00 70 1011.9
20260905235820 30 149 0.0 0.0 0.00 0.00 0.00 70 1011.9
20260905235320 30 156 0.0 0.0 0.00 0.00 0.00 72 1012.0
20260905234815 30 139 1.6 1.6 0.00 0.00 0.00 72 1011.9
20260905234310 30 158 0.0 0.0 0.00 0.00 0.00 71 1011.7
20260905233805 30 123 1.6 1.6 0.00 0.00 0.00 71 1011.9
20260905233306 30 175 1.6 1.6 0.00 0.00 0.00 71 1011.8
20260905232805 30 155 0.0 1.6 0.00 0.00 0.00 70 1012.0
20260905232301 30 152 0.0 0.0 0.00 0.00 0.00 70 1012.1
20260905231756 30 145 0.0 1.6 0.00 0.00 0.00 70 1012.1
20260905231252 30 170 0.0 0.0 0.00 0.00 0.00 70 1012.0
20260905230748 30 157 0.0 0.0 0.00 0.00 0.00 70 1011.9
20260905230245 30 140 0.0 0.0 0.00 0.00 0.00 70 1012.0
20260905225745 31 140 0.0 1.6 0.00 0.00 0.00 69 1012.0
20260905225241 31 342 3.2 6.4 0.00 0.00 0.00 69 1011.9
20260905224739 31 115 3.2 3.2 0.00 0.00 0.00 67 1011.9
20260905224236 31 288 3.2 4.8 0.00 0.00 0.00 66 1011.8
20260905223731 31 150 0.0 0.0 0.00 0.00 0.00 66 1011.6
20260905223228 31 86 3.2 4.8 0.00 0.00 0.00 65 1011.6
20260905222724 31 121 1.6 1.6 0.00 0.00 0.00 65 1011.5
20260905222222 31 162 3.2 3.2 0.00 0.00 0.00 66 1011.7
20260905221719 31 160 0.0 0.0 0.00 0.00 0.00 66 1011.8
20260905221215 31 92 1.6 1.6 0.00 0.00 0.00 65 1011.8
20260905220711 31 161 0.0 1.6 0.00 0.00 0.00 65 1011.7
20260905220207 31 157 0.0 0.0 0.00 0.00 0.00 65 1011.1
20260905215706 31 165 0.0 0.0 0.00 0.00 0.00 65 1011.2
20260905215202 31 165 0.0 0.0 0.00 0.00 0.00 64 1011.1
20260905214658 31 161 0.0 0.0 0.00 0.00 0.00 63 1011.6
20260905214153 31 168 0.0 0.0 0.00 0.00 0.00 63 1011.6
20260905213648 32 160 0.0 0.0 0.00 0.00 0.00 61 1011.4
20260905213143 32 168 0.0 0.0 0.00 0.00 0.00 61 1011.8
20260905212639 32 159 1.6 1.6 0.00 0.00 0.00 62 1011.5
20260905212138 32 162 0.0 0.0 0.00 0.00 0.00 60 1011.7
20260905211632 32 155 0.0 0.0 0.00 0.00 0.00 59 1011.6
20260905211128 33 163 0.0 0.0 0.00 0.00 0.00 57 1011.6
20260905210625 33 162 0.0 0.0 0.00 0.00 0.00 58 1011.8
20260905210119 33 162 0.0 0.0 0.00 0.00 0.00 57 1011.7
20260905205618 33 164 0.0 0.0 0.00 0.00 0.00 56 1012.1
20260905205118 33 165 0.0 0.0 0.00 0.00 0.00 56 1011.9
20260905204618 34 185 1.6 1.6 0.00 0.00 0.00 54 1012.0
20260905204113 34 173 0.0 0.0 0.00 0.00 0.00 53 1011.8
20260905203613 33 169 1.6 1.6 0.00 0.00 0.00 56 1012.1
20260905203108 33 160 0.0 0.0 0.00 0.00 0.00 53 1012.4
20260905202604 35 173 1.6 1.6 0.00 0.00 0.00 51 1012.1
20260905202059 35 167 0.0 0.0 0.00 0.00 0.00 51 1012.1
20260905201555 34 153 1.6 1.6 0.00 0.00 0.00 54 1012.3
20260905201055 33 182 3.2 4.8 0.00 0.00 0.00 55 1012.4
20260905200550 34 167 0.0 0.0 0.00 0.00 0.00 55 1012.5
20260905200050 34 182 1.6 3.2 0.00 0.00 0.00 51 1012.2
20260905195544 34 186 3.2 6.4 0.00 0.00 0.00 52 1012.4
20260905195039 34 114 1.6 1.6 0.00 0.00 0.00 51 1012.5
20260905194539 34 203 3.2 4.8 0.00 0.00 0.00 54 1012.5
20260905194033 35 187 3.2 3.2 0.00 0.00 0.00 51 1012.5
20260905193528 35 166 0.0 1.6 0.00 0.00 0.00 50 1012.5
20260905193023 35 189 1.6 1.6 0.00 0.00 0.00 50 1012.7
20260905192518 35 160 0.0 1.6 0.00 0.00 0.00 49 1012.8
20260905192015 35 164 0.0 0.0 0.00 0.00 0.00 50 1012.7
20260905191513 35 166 0.0 0.0 0.00 0.00 0.00 50 1013.0
20260905191012 33 166 0.0 0.0 0.00 0.00 0.00 51 1013.0
20260905190510 34 56 3.2 6.4 0.00 0.00 0.00 51 1013.1
20260905190004 34 156 3.2 3.2 0.00 0.00 0.00 51 1013.1
20260905185459 34 100 1.6 3.2 0.00 0.00 0.00 52 1013.2
20260905184957 34 170 1.6 3.2 0.00 0.00 0.00 51 1013.2
20260905184453 33 171 0.0 1.6 0.00 0.00 0.00 52 1013.2
20260905183951 34 165 0.0 0.0 0.00 0.00 0.00 50 1013.3
20260905183450 34 154 1.6 3.2 0.00 0.00 0.00 51 1013.5
20260905182945 33 157 0.0 0.0 0.00 0.00 0.00 51 1013.3
20260905182445 33 164 1.6 1.6 0.00 0.00 0.00 52 1013.4
20260905181940 33 181 1.6 3.2 0.00 0.00 0.00 54 1013.5
20260905181435 33 279 8.0 9.7 0.00 0.00 0.00 51 1013.7
20260905180934 33 176 4.8 4.8 0.00 0.00 0.00 52 1013.7
20260905180429 33 152 1.6 3.2 0.00 0.00 0.00 51 1013.8
20260905175925 33 176 0.0 1.6 0.00 0.00 0.00 50 1013.9
20260905175424 33 190 1.6 1.6 0.00 0.00 0.00 50 1013.8
20260905174919 32 164 1.6 3.2 0.00 0.00 0.00 53 1013.8
20260905174415 33 280 6.4 6.4 0.00 0.00 0.00 50 1014.1
20260905173910 33 191 1.6 4.8 0.00 0.00 0.00 53 1013.9
20260905173407 32 163 0.0 1.6 0.00 0.00 0.00 51 1013.8
20260905172906 32 165 1.6 4.8 0.00 0.00 0.00 53 1014.2
20260905172404 32 160 0.0 0.0 0.00 0.00 0.00 54 1014.2
20260905171900 32 166 1.6 3.2 0.00 0.00 0.00 51 1014.2
20260905171357 32 175 6.4 6.4 0.00 0.00 0.00 51 1014.3
20260905170853 32 163 0.0 1.6 0.00 0.00 0.00 51 1014.3
20260905170349 32 175 3.2 4.8 0.00 0.00 0.00 53 1014.5
20260905165848 32 171 3.2 3.2 0.00 0.00 0.00 51 1014.6
20260905165343 31 156 0.0 1.6 0.00 0.00 0.00 52 1014.5
20260905164838 32 173 1.6 3.2 0.00 0.00 0.00 53 1014.8
20260905164333 31 164 0.0 0.0 0.00 0.00 0.00 54 1014.7
20260905163828 31 165 0.0 1.6 0.00 0.00 0.00 52 1014.8
20260905163325 32 166 1.6 3.2 0.00 0.00 0.00 53 1014.8
20260905162820 32 151 0.0 0.0 0.00 0.00 0.00 52 1014.9
20260905162315 31 169 0.0 0.0 0.00 0.00 0.00 53 1014.8
20260905161815 32 163 0.0 1.6 0.00 0.00 0.00 51 1014.7
20260905161314 31 163 0.0 0.0 0.00 0.00 0.00 53 1015.0
20260905160812 31 161 1.6 4.8 0.00 0.00 0.00 54 1014.8
20260905160308 30 164 0.0 1.6 0.00 0.00 0.00 58 1014.9
20260905155802 30 159 0.0 0.0 0.00 0.00 0.00 56 1014.8
20260905155305 30 165 3.2 4.8 0.00 0.00 0.00 56 1014.6
20260905154801 29 166 3.2 4.8 0.00 0.00 0.00 57 1014.7
20260905154257 29 176 6.4 9.7 0.00 0.00 0.00 55 1014.9
20260905153752 30 167 3.2 6.4 0.00 0.00 0.00 56 1014.9
20260905153248 30 145 3.2 4.8 0.00 0.00 0.00 57 1014.9
20260905152743 29 173 1.6 1.6 0.00 0.00 0.00 57 1015.0
20260905152242 29 163 1.6 3.2 0.00 0.00 0.00 58 1015.0
20260905151742 29 159 3.2 3.2 0.00 0.00 0.00 58 1015.1
20260905151238 28 146 1.6 3.2 0.00 0.00 0.00 57 1015.2
20260905150738 28 143 3.2 3.2 0.00 0.00 0.00 58 1015.2
20260905150237 28 151 1.6 1.6 0.00 0.00 0.00 59 1015.2
20260905145735 27 165 4.8 9.7 0.00 0.00 0.00 59 1015.1
20260905145230 28 175 6.4 12.9 0.00 0.00 0.00 59 1015.0
20260905144729 28 164 3.2 3.2 0.00 0.00 0.00 59 1015.3
20260905144224 28 169 3.2 3.2 0.00 0.00 0.00 61 1015.3
20260905143723 28 170 6.4 6.4 0.00 0.00 0.00 58 1015.1
20260905143223 28 154 1.6 1.6 0.00 0.00 0.00 60 1015.4
20260905142721 27 183 4.8 6.4 0.00 0.00 0.00 60 1015.4
20260905142216 27 157 3.2 3.2 0.00 0.00 0.00 61 1015.4
20260905141712 27 188 1.6 3.2 0.00 0.00 0.00 63 1015.3
20260905141208 27 139 6.4 9.7 0.00 0.00 0.00 63 1015.4
20260905140703 27 142 0.0 0.0 0.00 0.00 0.00 63 1015.5
20260905140203 26 179 1.6 3.2 0.00 0.00 0.00 63 1015.3
20260905135657 26 179 4.8 9.7 0.00 0.00 0.00 64 1015.3
20260905135154 26 133 6.4 9.7 0.00 0.00 0.00 64 1015.4
20260905134653 26 172 3.2 4.8 0.00 0.00 0.00 64 1015.5
20260905134152 26 181 6.4 9.7 0.00 0.00 0.00 66 1015.6
20260905133647 25 192 3.2 4.8 0.00 0.00 0.00 68 1015.4
20260905133141 25 159 4.8 6.4 0.00 0.00 0.00 68 1015.2
20260905132641 25 140 4.8 4.8 0.00 0.00 0.00 67 1015.3
20260905132136 25 153 1.6 3.2 0.00 0.00 0.00 70 1015.2
20260905131631 25 144 6.4 9.7 0.00 0.00 0.00 70 1015.2
20260905131126 25 94 1.6 3.2 0.00 0.00 0.00 71 1015.3
20260905130621 25 158 0.0 1.6 0.00 0.00 0.00 71 1015.6
20260905130121 25 163 3.2 4.8 0.00 0.00 0.00 71 1015.7
20260905125621 24 173 1.6 3.2 0.00 0.00 0.00 73 1015.7
20260905125117 23 186 4.8 6.4 0.00 0.00 0.00 73 1015.7
20260905124613 24 164 3.2 3.2 0.00 0.00 0.00 74 1015.5
20260905124109 23 151 0.0 1.6 0.00 0.00 0.00 75 1015.6
20260905123604 23 163 0.0 0.0 0.00 0.00 0.00 77 1015.6
20260905123101 23 205 1.6 3.2 0.00 0.00 0.00 78 1015.7
20260905122601 23 175 1.6 3.2 0.00 0.00 0.00 79 1015.6
20260905122101 23 101 3.2 3.2 0.00 0.00 0.00 79 1015.5
20260905121555 23 300 1.6 1.6 0.00 0.00 0.00 79 1015.7
20260905121051 22 190 4.8 4.8 0.00 0.00 0.00 79 1015.5
20260905120549 22 161 0.0 1.6 0.00 0.00 0.00 79 1015.5
20260905120045 22 192 1.6 3.2 0.00 0.00 0.00 80 1015.5
20260905115544 22 140 4.8 9.7 0.00 0.00 0.00 80 1015.7
20260905115039 22 158 0.0 1.6 0.00 0.00 0.00 81 1015.4
20260905114538 22 149 0.0 1.6 0.00 0.00 0.00 81 1015.2
20260905114037 22 69 4.8 6.4 0.00 0.00 0.00 80 1015.1
20260905113532 23 176 4.8 9.7 0.00 0.00 0.00 81 1015.0
20260905113028 23 234 1.6 3.2 0.00 0.00 0.00 81 1015.1
20260905112523 23 164 3.2 4.8 0.00 0.00 0.00 82 1014.9
20260905112018 23 77 3.2 3.2 0.00 0.00 0.00 86 1014.9
20260905111513 24 160 1.6 3.2 0.00 0.00 0.00 88 1014.6
20260905111012 24 152 3.2 6.4 0.00 0.00 0.00 94 1014.7
20260905110512 23 90 6.4 9.7 0.00 0.00 0.00 97 1014.6
20260905110007 23 160 0.0 0.0 0.00 0.00 0.00 97 1013.9
20260905105501 23 160 0.0 0.0 0.00 0.00 0.00 97 1014.0
20260905105000 23 164 0.0 0.0 0.00 0.00 0.00 97 1013.8
20260905104457 23 164 0.0 0.0 0.00 0.00 0.00 97 1013.8
20260905103956 23 165 0.0 0.0 0.00 0.00 0.00 97 1013.7
20260905103452 23 160 0.0 0.0 0.00 0.00 0.00 96 1013.8
20260905102948 23 160 0.0 0.0 0.00 0.00 0.00 96 1013.8
20260905102444 23 159 0.0 0.0 0.00 0.00 0.00 96 1013.8
20260905101939 23 157 0.0 0.0 0.00 0.00 0.00 96 1013.8
20260905101438 23 163 0.0 0.0 0.00 0.00 0.00 96 1013.8
20260905100937 23 163 0.0 0.0 0.00 0.00 0.00 96 1013.5
20260905100433 23 163 0.0 0.0 0.00 0.00 0.00 96 1013.5
20260905095932 23 163 0.0 0.0 0.00 0.00 0.00 96 1013.7
20260905095433 23 163 0.0 0.0 0.00 0.00 0.00 96 1013.4
20260905094932 23 163 0.0 0.0 0.00 0.00 0.00 95 1013.7
20260905094429 23 163 0.0 0.0 0.00 0.00 0.00 95 1013.7
20260905093927 23 163 0.0 0.0 0.00 0.00 0.00 95 1013.5
20260905093423 23 161 0.0 0.0 0.00 0.00 0.00 95 1013.3
20260905092918 24 163 0.0 0.0 0.00 0.00 0.00 95 1013.4
20260905092413 24 166 0.0 0.0 0.00 0.00 0.00 95 1013.4
20260905091909 24 166 0.0 0.0 0.00 0.00 0.00 95 1013.7
20260905091409 24 166 0.0 0.0 0.00 0.00 0.00 96 1013.4
20260905090908 24 165 0.0 0.0 0.00 0.00 0.00 96 1013.7
20260905090404 23 168 0.0 0.0 0.00 0.00 0.00 96 1013.9
20260905085903 23 158 0.0 0.0 0.00 0.00 0.00 96 1013.8
20260905085402 23 158 0.0 0.0 0.00 0.00 0.00 96 1013.8
20260905084859 23 158 0.0 0.0 0.00 0.00 0.00 96 1013.5
20260905084358 23 158 0.0 0.0 0.00 0.00 0.00 96 1013.4
20260905083853 23 158 0.0 0.0 0.00 0.00 0.00 96 1013.4
20260905083348 23 157 0.0 0.0 0.00 0.00 0.00 96 1013.5
20260905082843 23 163 0.0 0.0 0.00 0.00 0.00 96 1013.1
20260905082340 23 163 0.0 0.0 0.00 0.00 0.00 96 1013.0
20260905081835 23 163 0.0 0.0 0.00 0.00 0.00 96 1013.1
20260905081329 23 163 0.0 0.0 0.00 0.00 0.00 96 1012.9
20260905080828 23 163 0.0 0.0 0.00 0.00 0.00 96 1012.9
20260905080323 23 163 0.0 0.0 0.00 0.00 0.00 96 1012.8
20260905075822 23 163 0.0 0.0 0.00 0.00 0.00 95 1012.9
20260905075322 23 163 0.0 0.0 0.00 0.00 0.00 95 1012.9
20260905074821 23 163 0.0 0.0 0.00 0.00 0.00 95 1012.8
20260905074317 23 163 0.0 0.0 0.00 0.00 0.00 95 1012.9
20260905073812 23 164 0.0 0.0 0.00 0.00 0.00 95 1012.6